Weather History for New York, NY

Change the Weather History Date:

Monday, March 21, 2005

  Actual Average Record
Temperature  
Mean Temperature 40 °F 44 °F  
Max Temperature 44 °F 51 °F 70 °F (1948)
Min Temperature 37 °F 36 °F 18 °F (1986)
Degree Days  
Heating Degree Days 24 21  
Month to date heating degree days 511  
Since 1 July heating degree days 3940  
Cooling Degree Days 0 0  
Month to date cooling degree days 0  
Year to date cooling degree days 0  
Moisture  
Dew Point 33 °F    
Average Humidity 76    
Maximum Humidity 89    
Minimum Humidity 58    
Precipitation  
Precipitation 0.02 in 0.14 in 2.00 in (1980)
Month to date precipitation 2.61  
Year to date precipitation 8.54  
Snow  
Snow 0.00 in 0.10 in 6.90 in (1958)
Month to date snowfall 3.6  
Since 1 July snowfall 25.6  
Snow Depth -    
Sea Level Pressure  
Sea Level Pressure 29.97 in    
Wind  
Wind Speed 7 mph (NNW)    
Max Wind Speed 18 mph    
Max Gust Speed -    
Visibility 10 miles    
Events Rain    
T = Trace of Precipitation, MM = Missing Value Source: NWS Daily Summary

Daily Weather History Graph

Daily Weather History Graph

Search for Another Location

Airport:

Trip Planner

Search our weather history database for the weather conditions in past years. The results will help you decide how hot, cold, wet, or windy it might be!

Date:

Astronomy

Mar. 21, 2005 Rise Set
Actual Time 5:56 AM EST 6:08 PM EST
Civil Twilight 5:29 AM EST 6:36 PM EST
Nautical Twilight 4:57 AM EST 7:08 PM EST
Astronomical Twilight 4:25 AM EST 7:41 PM EST
Moon 1:56 PM EST (3/21) 4:17 AM EST (3/21)
Length of Visible Light 13h 06m
Length of Day
12h 11m
Waxing Gibbous, 84% of the Moon is Illuminated
Mar 21
Waxing Gibbous
Mar 25
Full
Apr 1
Last Quarter
Apr 8
New
Apr 16
First Quarter

Hourly Weather History & Observations

Time (EST) Temp. Windchill Dew Point Humidity Pressure Visibility Wind Dir Wind Speed Gust Speed Precip Events Conditions
12:08 AM 37.4 °F 34.9 °F 33.8 °F 87% 29.94 in 10.0 mi ENE 3.5 mph - N/A   Overcast
12:51 AM 37.9 °F 32.7 °F 34.0 °F 86% 29.94 in 10.0 mi ENE 6.9 mph - N/A   Overcast
1:51 AM 37.9 °F 34.4 °F 34.0 °F 86% 29.93 in 10.0 mi ENE 4.6 mph - N/A   Overcast
2:04 AM 37.4 °F 34.9 °F 33.8 °F 87% 29.92 in 10.0 mi East 3.5 mph - N/A   Overcast
2:51 AM 37.9 °F - 33.1 °F 83% 29.91 in 10.0 mi Calm Calm - N/A   Overcast
3:51 AM 37.9 °F 34.4 °F 34.0 °F 86% 29.92 in 10.0 mi East 4.6 mph - N/A   Overcast
4:51 AM 37.9 °F 35.5 °F 34.0 °F 86% 29.92 in 10.0 mi ENE 3.5 mph - N/A   Overcast
5:51 AM 37.9 °F 35.5 °F 35.1 °F 89% 29.93 in 6.0 mi NE 3.5 mph - 0.00 in Rain Light Rain
6:29 AM 39.2 °F - 35.6 °F 87% 29.93 in 4.0 mi Calm Calm - 0.02 in Rain Light Rain
6:51 AM 39.9 °F - 37.0 °F 89% 29.93 in 5.0 mi Calm Calm - 0.02 in   Overcast
7:51 AM 42.1 °F 35.7 °F 37.0 °F 82% 29.94 in 10.0 mi NNW 11.5 mph - N/A   Overcast
8:51 AM 42.1 °F 35.2 °F 37.0 °F 82% 29.93 in 10.0 mi NNW 12.7 mph - N/A   Overcast
9:08 AM 42.8 °F 35.8 °F 37.4 °F 81% 29.94 in 10.0 mi NNW 13.8 mph - N/A   Overcast
9:51 AM 42.1 °F 35.7 °F 36.0 °F 79% 29.94 in 10.0 mi NNW 11.5 mph - N/A   Overcast
10:51 AM 42.1 °F 37.1 °F 36.0 °F 79% 29.95 in 10.0 mi NW 8.1 mph - N/A   Overcast
11:51 AM 42.1 °F 35.2 °F 36.0 °F 79% 29.95 in 10.0 mi NW 12.7 mph - N/A   Overcast
12:51 PM 43.0 °F 35.7 °F 35.1 °F 74% 29.94 in 10.0 mi NNW 15.0 mph - N/A   Overcast
1:51 PM 42.1 °F 35.2 °F 35.1 °F 76% 29.95 in 10.0 mi NNW 12.7 mph - N/A   Overcast
2:51 PM 42.1 °F 34.5 °F 34.0 °F 73% 29.96 in 10.0 mi NNW 15.0 mph - N/A   Overcast
3:51 PM 43.0 °F 35.7 °F 34.0 °F 71% 29.96 in 10.0 mi NNW 15.0 mph - N/A   Overcast
4:51 PM 44.1 °F 37.7 °F 33.1 °F 65% 29.97 in 10.0 mi NW 12.7 mph - N/A   Mostly Cloudy
5:51 PM 44.1 °F 38.1 °F 32.0 °F 63% 29.99 in 10.0 mi NW 11.5 mph - N/A   Scattered Clouds
6:51 PM 44.1 °F 38.1 °F 30.9 °F 60% 30.01 in 10.0 mi NW 11.5 mph - N/A   Scattered Clouds
7:51 PM 43.0 °F 34.8 °F 28.9 °F 58% 30.04 in 10.0 mi NW 18.4 mph - N/A   Partly Cloudy
8:51 PM 41.0 °F 32.8 °F 28.0 °F 60% 30.06 in 10.0 mi NW 16.1 mph - N/A   Clear
9:51 PM 39.9 °F 32.9 °F 27.0 °F 60% 30.07 in 10.0 mi NW 11.5 mph - N/A   Clear
10:51 PM 39.9 °F 34.5 °F 27.0 °F 60% 30.08 in 10.0 mi WNW 8.1 mph - N/A   Clear
11:51 PM 39.9 °F 33.9 °F 27.0 °F 60% 30.09 in 10.0 mi NW 9.2 mph - N/A   Clear